W9SIG Weather Reports


time (UTC)temp
F
wind
direction
speed
knots
gust
knots
rain 1hr
in
rain 24hr
in
rain mn
in
humidity
%
barometer
mb
20260509085651 53 215 0.0 0.0 0.02 0.70 0.35 1 1008.0
20260509085151 53 215 0.0 1.7 0.03 0.70 0.35 1 1008.1
20260509084651 53 215 0.9 1.7 0.03 0.70 0.35 1 1008.1
20260509084151 54 213 0.0 1.7 0.04 0.70 0.35 1 1008.2
20260509083649 54 205 0.0 1.7 0.05 0.70 0.35 1 1008.2
20260509083152 54 205 0.0 1.7 0.06 0.70 0.35 1 1008.4
20260509083148 54 205 0.0 1.7 0.05 0.70 0.35 1 1008.2
20260509082148 54 204 0.9 1.7 0.07 0.70 0.35 1 1008.5
20260509081647 54 204 0.9 2.6 0.08 0.70 0.35 1 1008.6
20260509081147 54 204 0.9 2.6 0.09 0.70 0.35 1 1008.6
20260509080647 54 204 0.9 2.6 0.09 0.70 0.35 1 1008.5
20260509080152 54 207 0.9 2.6 0.07 0.67 0.32 1 1008.6
20260509080147 54 182 0.9 2.6 0.09 0.69 0.34 1 1008.5
20260509075647 54 202 0.9 2.6 0.08 0.68 0.34 1 1008.5
20260509075252 54 207 0.9 3.5 0.08 0.67 0.32 1 1008.8
20260509074147 54 194 0.9 3.5 0.08 0.66 0.31 1 1008.7
20260509073648 55 208 0.9 3.5 0.08 0.65 0.30 1 1008.7
20260509073148 55 209 0.9 2.6 0.08 0.65 0.30 1 1008.8
20260509072648 55 190 1.7 3.5 0.08 0.64 0.29 1 1009.1
20260509072147 55 199 0.9 6.1 0.07 0.63 0.28 1 1009.1
20260509071647 55 219 0.9 6.1 0.07 0.62 0.27 1 1009.3
20260509071147 55 190 0.9 2.6 0.06 0.61 0.26 1 1009.4
20260509070648 55 190 0.9 2.6 0.06 0.61 0.26 1 1009.5
20260509070148 55 190 0.0 2.6 0.05 0.60 0.25 1 1009.4
20260509065648 55 320 0.0 2.6 0.05 0.60 0.25 1 1009.1
20260509065148 55 320 0.9 2.6 0.05 0.60 0.25 1 1009.2
20260509064648 55 148 0.9 2.6 0.04 0.59 0.24 1 1009.1
20260509064147 55 118 0.9 1.7 0.03 0.58 0.23 1 1009.3
20260509063647 55 118 0.9 1.7 0.02 0.57 0.23 1 1009.7
20260509063145 55 258 0.9 1.7 0.02 0.57 0.22 1 1009.9
20260509062644 55 258 0.9 1.7 0.02 0.56 0.21 1 1009.8
20260509062142 55 263 0.9 1.7 0.04 0.56 0.21 1 1009.9
20260509061642 55 263 0.0 1.7 0.04 0.55 0.20 1 1009.8
20260509061142 55 263 0.0 1.7 0.05 0.55 0.20 1 1009.8
20260509060642 55 263 0.9 2.6 0.06 0.55 0.20 1 1009.9
20260509060142 55 263 0.9 2.6 0.07 0.55 0.20 1 1009.9
20260509055642 55 171 0.9 1.7 0.08 0.55 0.20 1 1009.9
20260509055140 55 171 0.9 2.6 0.10 0.55 0.20 1 1009.7
20260509054641 55 215 0.9 2.6 0.11 0.55 0.20 1 1009.7
20260509054140 55 215 0.9 1.7 0.12 0.55 0.20 1 1009.8
20260509053640 55 216 0.0 1.7 0.13 0.55 0.20 1 1009.9
20260509053141 55 216 0.0 0.9 0.14 0.55 0.20 1 1010.0
20260509052640 55 216 0.0 0.9 0.14 0.54 0.19 1 1010.2
20260509052140 55 216 0.0 1.7 0.13 0.52 0.17 1 1010.3
20260509051640 55 216 0.0 1.7 0.13 0.51 0.16 1 1010.3
20260509051140 55 216 0.0 1.7 0.13 0.50 0.15 1 1010.2
20260509050639 55 215 0.0 1.7 0.13 0.49 0.14 1 1010.3
20260509050142 55 212 0.0 1.7 0.13 0.47 0.12 1 1010.5
20260509050138 55 215 0.0 1.7 0.13 0.48 0.13 1 1010.5
20260509045139 55 212 0.0 1.7 0.12 0.45 0.11 1 1010.5
20260509044641 55 217 0.9 2.6 0.11 0.42 0.07 1 1010.5
20260509044636 55 212 0.9 2.6 0.12 0.44 0.09 1 1010.5
20260509044136 55 212 0.9 2.6 0.11 0.43 0.08 1 1010.6
20260509043136 55 194 0.9 2.6 0.11 0.41 0.06 1 1010.5
20260509042634 55 189 0.9 2.6 0.11 0.40 0.05 1 1010.5
20260509042134 55 315 0.9 2.6 0.11 0.39 0.04 1 1010.4
20260509041634 55 220 0.9 4.3 0.11 0.38 0.03 1 1010.5
20260509041138 55 192 0.9 1.7 0.10 0.36 0.01 1 1010.4
20260509041134 55 206 0.9 4.3 0.11 0.37 0.02 1 1010.4
20260509040740 55 192 0.9 1.7 0.11 0.35 0.00 1 1010.3
20260509035639 55 203 0.0 2.6 0.10 0.33 0.33 1 1010.4
20260509035634 55 203 0.9 2.6 0.10 0.34 0.34 1 1010.4
20260509034638 55 148 0.0 1.7 0.09 0.32 0.32 1 1010.4
20260509034634 55 148 0.0 1.7 0.09 0.32 0.32 1 1010.4
20260509033634 55 148 0.0 1.7 0.08 0.31 0.31 1 1010.4
20260509033134 55 148 0.0 1.7 0.07 0.30 0.30 1 1010.5
20260509032638 55 148 0.0 1.7 0.05 0.28 0.28 1 1010.7
20260509032634 55 148 0.0 1.7 0.06 0.29 0.29 1 1010.6
20260509032239 55 148 0.9 1.7 0.04 0.27 0.27 1 1010.6
20260509031132 55 148 0.0 1.7 0.03 0.26 0.26 1 1010.6
20260509030632 55 128 0.0 1.7 0.03 0.26 0.26 1 1010.7
20260509030132 55 128 0.0 1.7 0.01 0.24 0.25 1 1010.8
20260509025630 55 128 0.0 0.9 0.01 0.24 0.24 1 1010.8
20260509025127 55 128 0.0 0.9 0.00 0.23 0.23 1 1010.7
20260509024628 55 128 0.0 0.9 0.00 0.23 0.23 1 1010.7
20260509024126 55 128 0.0 0.9 0.01 0.23 0.23 1 1010.7
20260509023626 55 128 0.0 0.9 0.01 0.23 0.23 1 1010.5
20260509023131 55 128 0.0 0.9 0.03 0.23 0.23 1 1010.5
20260509023126 55 128 0.0 0.9 0.01 0.23 0.23 1 1010.5
20260509022126 55 128 0.0 0.9 0.05 0.23 0.23 1 1010.5
20260509021631 56 128 0.0 0.9 0.08 0.23 0.23 1 1010.4
20260509021626 56 128 0.0 0.9 0.07 0.23 0.23 1 1010.5
20260509020625 56 128 0.0 0.9 0.10 0.23 0.23 1 1010.5
20260509020126 56 128 0.0 0.9 0.12 0.23 0.23 1 1010.5
20260509015625 56 128 0.0 0.9 0.13 0.23 0.23 1 1010.6
20260509015125 56 128 0.0 0.9 0.14 0.23 0.23 1 1010.4
20260509014626 56 128 0.0 0.0 0.15 0.23 0.23 1 1010.2
20260509014126 56 128 0.0 0.0 0.14 0.22 0.22 1 1010.3
20260509013625 56 128 0.0 0.0 0.14 0.22 0.22 1 1010.3
20260509013125 56 128 0.0 1.7 0.14 0.22 0.22 1 1010.3
20260509012626 56 128 0.9 3.5 0.12 0.20 0.20 1 1010.3
20260509012125 56 128 0.9 3.5 0.11 0.18 0.18 1 1010.3
20260509011632 56 122 0.9 2.6 0.06 0.13 0.13 1 1010.4
20260509011626 56 130 0.9 2.6 0.09 0.16 0.16 1 1010.6
20260509011126 56 130 0.9 2.6 0.08 0.15 0.15 1 1010.6
20260509010125 56 43 0.0 0.9 0.04 0.11 0.12 1 1010.5
20260509005624 56 43 0.0 1.7 0.03 0.10 0.10 1 1010.5
20260509005124 56 43 0.0 1.7 0.02 0.09 0.09 1 1010.3
20260509004621 57 43 0.0 0.0 0.01 0.08 0.08 1 1010.2
20260509004121 57 43 0.0 0.9 0.01 0.08 0.08 1 1010.1
20260509003620 57 43 0.0 1.7 0.01 0.08 0.08 1 1010.2
20260509003115 57 43 0.9 1.7 0.01 0.08 0.08 1 1010.2
20260509002720 57 43 0.0 1.7 0.01 0.07 0.07 1 1010.4
20260509002618 57 43 0.0 0.9 0.02 0.08 0.08 1 1010.3
20260509002614 57 43 0.0 1.7 0.01 0.07 0.08 1 1010.3
20260509001111 57 43 0.0 0.9 0.02 0.07 0.07 1 1010.6
20260509000612 57 43 0.0 0.9 0.02 0.07 0.07 1 1010.7
20260509000109 57 43 0.0 1.7 0.02 0.07 0.07 1 1010.7
20260508235609 57 43 0.0 1.7 0.02 0.07 0.07 1 1010.6
20260508235110 57 43 0.0 2.6 0.02 0.07 0.07 1 1010.5
20260508234610 57 43 0.0 2.6 0.02 0.07 0.07 1 1010.5
20260508234109 58 30 0.0 1.7 0.02 0.07 0.07 1 1010.5
20260508233609 58 30 0.9 4.3 0.03 0.07 0.07 1 1010.5
20260508233109 58 30 0.9 4.3 0.03 0.07 0.07 1 1010.5
20260508232607 58 29 0.9 2.6 0.02 0.06 0.06 1 1010.5
20260508232108 58 28 0.9 2.6 0.02 0.06 0.06 1 1010.8
20260508231606 58 27 0.9 5.2 0.02 0.06 0.06 1 1010.8
20260508231105 58 26 1.7 5.2 0.01 0.05 0.05 1 1010.8
20260508230606 59 290 1.7 5.2 0.02 0.05 0.05 1 1010.7
20260508230105 59 17 0.9 4.3 0.02 0.05 0.05 1 1010.7
20260508225605 59 18 0.0 1.7 0.02 0.05 0.05 1 1010.7
20260508225110 59 18 0.0 1.7 0.03 0.05 0.05 1 1010.5
20260508225106 59 18 0.0 1.7 0.02 0.05 0.05 1 1010.5
20260508224105 60 18 0.0 1.7 0.03 0.05 0.05 1 1010.5
20260508223605 60 18 0.0 1.7 0.02 0.04 0.05 1 1010.5
20260508223105 60 18 0.9 1.7 0.02 0.04 0.04 1 1010.4
20260508222608 60 18 0.0 1.7 0.02 0.04 0.04 1 1010.5
20260508222604 60 18 0.0 2.6 0.03 0.04 0.04 1 1010.5
20260508221603 60 18 0.9 2.6 0.03 0.04 0.04 1 1010.6
20260508221103 60 17 0.9 2.6 0.03 0.04 0.04 1 1010.5
20260508220603 60 134 0.0 1.7 0.02 0.03 0.03 1 1010.5
20260508220104 60 134 0.0 1.7 0.02 0.03 0.03 3 1010.3
20260508215603 60 159 0.0 1.7 0.02 0.03 0.03 9 1010.4
20260508215107 61 31 0.9 3.5 0.02 0.02 0.03 19 1010.4
20260508215103 61 291 0.9 2.6 0.03 0.03 0.03 11 1010.4
20260508214107 61 5 0.9 1.7 0.02 0.02 0.02 24 1010.5
20260508214103 61 5 0.0 3.5 0.02 0.02 0.02 22 1010.5
20260508213602 62 5 0.9 1.7 0.02 0.02 0.02 30 1010.4
20260508212601 62 163 0.0 0.9 0.02 0.02 0.02 35 1010.4
20260508212101 62 163 0.0 0.0 0.01 0.01 0.01 40 1010.6
20260508211602 62 163 0.0 0.9 0.01 0.01 0.01 42 1010.4
20260508211101 63 163 0.0 0.9 0.01 0.01 0.01 48 1010.2
20260508210601 63 229 0.0 0.9 0.01 0.01 0.01 52 1010.1
20260508210106 63 229 0.0 0.9 0.01 0.01 0.01 58 1010.2
20260508205101 63 229 0.0 0.9 0.00 0.00 0.00 60 1010.2
20260508204600 63 229 0.0 1.7 0.00 0.00 0.00 61 1010.2
20260508204058 64 229 0.0 2.6 0.00 0.00 0.00 62 1010.2
20260508203558 64 229 0.9 2.6 0.00 0.00 0.00 63 1010.1
20260508203058 64 229 0.9 2.6 0.00 0.00 0.00 63 1010.2
20260508202559 64 229 0.9 3.5 0.00 0.00 0.00 64 1010.2
20260508202103 65 100 1.7 8.7 0.00 0.00 0.00 64 1010.5
20260508202059 64 243 1.7 8.7 0.00 0.00 0.00 64 1010.3
20260508201704 65 234 0.9 6.1 0.00 0.00 0.00 64 1010.4
20260508200559 65 232 0.9 5.2 0.00 0.00 0.00 64 1010.5
20260508200059 66 223 0.9 2.6 0.00 0.00 0.00 64 1010.7
20260508195558 66 224 1.7 5.2 0.00 0.00 0.00 63 1010.7
20260508195056 66 232 1.7 5.2 0.00 0.00 0.00 63 1010.7
20260508194556 66 226 1.7 5.2 0.00 0.00 0.00 62 1010.5
20260508194056 66 196 1.7 7.0 0.00 0.00 0.00 62 1010.6
20260508193557 66 219 1.7 7.0 0.00 0.00 0.00 63 1010.7
20260508193100 66 187 0.9 2.6 0.00 0.00 0.00 64 1010.7
20260508193056 66 232 1.7 7.0 0.00 0.00 0.00 63 1010.6
20260508192056 66 187 0.9 2.6 0.00 0.00 0.00 62 1010.8
20260508191600 66 185 1.7 5.2 0.00 0.00 0.00 62 1011.2
20260508191556 66 152 0.9 2.6 0.00 0.00 0.00 63 1011.1
20260508191202 66 186 1.7 5.2 0.00 0.00 0.00 61 1011.2
20260508190702 66 221 0.9 3.5 0.00 0.00 0.00 59 1011.2
20260508185557 67 197 0.9 2.6 0.00 0.00 0.00 60 1011.2
20260508185100 67 215 1.7 7.8 0.00 0.00 0.00 61 1011.2
20260508185056 67 215 1.7 4.3 0.00 0.00 0.00 61 1011.2
20260508184056 67 200 2.6 7.8 0.00 0.00 0.00 59 1011.3
20260508183556 67 187 2.6 7.0 0.00 0.00 0.00 58 1011.4
20260508183056 67 267 1.7 5.2 0.00 0.00 0.00 60 1011.3
20260508182556 67 280 2.6 5.2 0.00 0.00 0.00 60 1011.4
20260508182056 67 261 2.6 6.1 0.00 0.00 0.00 60 1011.6
20260508181554 67 184 2.6 7.8 0.00 0.00 0.00 58 1011.8
20260508181054 67 232 3.5 9.6 0.00 0.00 0.00 56 1011.7
20260508180554 67 229 3.5 9.6 0.00 0.00 0.00 57 1011.7
20260508180054 67 109 2.6 7.8 0.00 0.00 0.00 58 1011.9
20260508175554 68 311 2.6 7.8 0.00 0.00 0.00 58 1011.9
20260508175052 68 210 2.6 7.8 0.00 0.00 0.00 58 1012.0
20260508174553 69 214 2.6 8.7 0.00 0.00 0.00 58 1012.0
20260508174054 69 180 2.6 8.7 0.00 0.00 0.00 56 1012.1
20260508173551 70 178 2.6 7.8 0.00 0.00 0.00 58 1012.1
20260508173048 69 205 3.5 7.8 0.00 0.00 0.00 60 1012.2
20260508172548 69 189 2.6 7.0 0.00 0.00 0.00 58 1012.2
20260508172053 69 200 2.6 10.4 0.00 0.00 0.00 60 1012.6
20260508172048 69 189 2.6 6.1 0.00 0.00 0.00 57 1012.3
20260508171548 69 215 2.6 5.2 0.00 0.00 0.00 59 1012.5
20260508170546 68 227 4.3 13.0 0.00 0.00 0.00 60 1012.6
20260508170046 68 186 4.3 13.0 0.00 0.00 0.00 60 1012.7
20260508165546 67 225 2.6 9.6 0.00 0.00 0.00 61 1012.8
20260508165046 67 263 2.6 9.6 0.00 0.00 0.00 62 1012.8
20260508164546 67 182 3.5 8.7 0.00 0.00 0.00 60 1012.8
20260508164046 66 228 3.5 8.7 0.00 0.00 0.00 57 1012.9
20260508163546 66 301 3.5 8.7 0.00 0.00 0.00 60 1013.0
20260508163046 66 236 3.5 7.8 0.00 0.00 0.00 62 1013.1
20260508162545 65 287 2.6 7.8 0.00 0.00 0.00 64 1013.4
20260508162044 64 188 1.7 7.8 0.00 0.00 0.00 64 1013.3
20260508161549 63 167 1.7 5.2 0.00 0.00 0.00 63 1013.5
20260508161545 63 134 1.7 7.0 0.00 0.00 0.00 63 1013.4
20260508160544 62 211 2.6 5.2 0.00 0.00 0.00 64 1013.6
20260508160045 62 222 1.7 5.2 0.00 0.00 0.00 64 1013.7
20260508155544 62 238 1.7 9.6 0.00 0.00 0.00 63 1013.8
20260508155044 61 196 1.7 9.6 0.00 0.00 0.00 64 1013.8
20260508154544 61 182 1.7 7.8 0.00 0.00 0.00 64 1013.8
20260508154045 61 157 1.7 7.8 0.00 0.00 0.00 64 1013.9
20260508153544 61 222 1.7 7.8 0.00 0.00 0.00 64 1013.9
20260508153042 61 196 1.7 6.1 0.00 0.00 0.00 64 1014.0
20260508152542 62 191 2.6 6.1 0.00 0.00 0.00 64 1013.9
20260508152042 62 198 1.7 5.2 0.00 0.00 0.00 64 1014.0
20260508151542 62 266 2.6 7.0 0.00 0.00 0.00 64 1014.0
20260508151046 61 161 1.7 8.7 0.00 0.00 0.00 64 1014.0
20260508151042 62 92 2.6 7.0 0.00 0.00 0.00 64 1014.0
20260508150042 61 160 1.7 8.7 0.00 0.00 0.00 64 1013.8
20260508145543 60 170 1.7 4.3 0.00 0.00 0.00 64 1014.0
20260508145042 60 154 1.7 7.0 0.00 0.00 0.00 64 1014.0
20260508144541 60 46 2.6 7.0 0.00 0.00 0.00 64 1014.1
20260508144040 60 198 1.7 6.1 0.00 0.00 0.00 64 1014.2
20260508143540 60 180 1.7 6.1 0.00 0.00 0.00 64 1014.3
20260508143045 60 202 2.6 10.4 0.00 0.00 0.00 64 1014.4
20260508143041 60 165 2.6 7.0 0.00 0.00 0.00 64 1014.4
20260508142040 60 207 2.6 10.4 0.00 0.00 0.00 63 1014.4
20260508141540 60 241 2.6 6.1 0.00 0.00 0.00 64 1014.5
20260508141040 60 200 2.6 7.0 0.00 0.00 0.00 64 1014.5
20260508140540 59 317 2.6 7.0 0.00 0.00 0.00 64 1014.6
20260508140043 58 200 2.6 7.0 0.00 0.00 0.00 64 1014.7
20260508140039 58 176 1.7 7.0 0.00 0.00 0.00 64 1014.7
20260508135644 58 123 2.6 11.3 0.00 0.00 0.00 64 1014.7
20260508134540 57 169 2.6 7.0 0.00 0.00 0.00 63 1014.7
20260508134536 58 119 2.6 11.3 0.00 0.00 0.00 64 1014.7
20260508134141 57 207 1.7 6.1 0.00 0.00 0.00 62 1014.6
20260508133641 54 238 1.7 7.0 0.00 0.00 0.00 61 1014.6
20260508133035 56 265 2.6 7.0 0.00 0.00 0.00 63 1014.6
20260508132535 55 278 2.6 7.0 0.00 0.00 0.00 63 1014.7
20260508131540 53 186 1.7 4.3 0.00 0.00 0.00 59 1014.7
20260508131536 54 168 1.7 7.0 0.00 0.00 0.00 58 1014.5
20260508130535 53 108 1.7 5.2 0.00 0.00 0.00 60 1014.8
20260508130040 51 206 2.6 7.0 0.00 0.00 0.00 54 1014.9
20260508130036 52 159 2.6 7.0 0.00 0.00 0.00 58 1014.8
20260508125036 51 240 1.7 6.1 0.00 0.00 0.00 49 1014.8
20260508124535 50 163 1.7 6.1 0.00 0.00 0.00 51 1014.9
20260508124035 49 265 1.7 5.2 0.00 0.00 0.00 49 1014.9
20260508123535 49 202 0.9 5.2 0.00 0.00 0.00 47 1014.9
20260508123044 48 230 1.7 3.5 0.00 0.00 0.00 49 1014.7
20260508123035 48 227 0.9 3.5 0.00 0.00 0.00 48 1014.9
20260508122040 47 184 1.7 3.5 0.00 0.00 0.00 47 1014.7
20260508122036 48 194 1.7 3.5 0.00 0.00 0.00 48 1014.6
20260508121036 47 184 1.7 3.5 0.00 0.00 0.00 47 1014.6
20260508120536 47 184 1.7 3.5 0.00 0.00 0.00 46 1014.7
20260508120036 47 195 0.9 3.5 0.00 0.00 0.00 46 1014.6
20260508115536 46 197 0.9 3.5 0.00 0.00 0.00 46 1014.6
20260508115035 46 165 0.9 3.5 0.00 0.00 0.00 46 1014.7
20260508114535 46 165 0.9 3.5 0.00 0.00 0.00 45 1014.6
20260508114035 46 178 0.9 2.6 0.00 0.00 0.00 43 1014.6
20260508113535 46 178 0.9 2.6 0.00 0.00 0.00 44 1014.6
20260508113035 46 178 0.9 2.6 0.00 0.00 0.00 45 1014.5
20260508112535 46 178 0.9 2.6 0.00 0.00 0.00 44 1014.4
20260508112033 45 178 0.9 2.6 0.00 0.00 0.00 43 1014.4
20260508111533 45 178 1.7 2.6 0.00 0.00 0.00 42 1014.4
20260508111032 45 178 0.9 2.6 0.00 0.00 0.00 40 1014.4
20260508110531 45 178 0.9 1.7 0.00 0.00 0.00 38 1014.4
20260508110031 45 178 0.9 2.6 0.00 0.00 0.00 38 1014.4
20260508105532 45 178 0.9 2.6 0.00 0.00 0.00 37 1014.3
20260508105034 45 57 0.9 1.7 0.00 0.00 0.00 28 1014.3
20260508105030 45 178 0.9 2.6 0.00 0.00 0.00 32 1014.3
20260508104035 45 281 0.9 1.7 0.00 0.00 0.00 20 1014.4
20260508104029 45 281 0.9 1.7 0.00 0.00 0.00 22 1014.3
20260508103034 45 281 0.9 1.7 0.00 0.00 0.00 19 1014.4
20260508103030 45 281 0.9 1.7 0.00 0.00 0.00 18 1014.4
20260508102029 45 280 0.9 1.7 0.00 0.00 0.00 18 1014.3
20260508101529 45 281 0.9 1.7 0.00 0.00 0.00 19 1014.2
20260508101027 45 281 0.9 1.7 0.00 0.00 0.00 18 1014.3
20260508100531 45 281 0.9 1.7 0.00 0.00 0.00 21 1014.3
20260508100527 45 281 0.9 1.7 0.00 0.00 0.00 19 1014.3
20260508095526 45 281 0.9 1.7 0.00 0.00 0.00 22 1014.3
20260508095025 45 281 0.9 1.7 0.00 0.00 0.00 23 1014.3
20260508094525 45 281 0.9 1.7 0.00 0.00 0.00 25 1014.4
20260508094025 45 281 0.0 1.7 0.00 0.00 0.00 28 1014.3
20260508093525 46 281 0.0 0.9 0.00 0.00 0.00 31 1014.3
20260508093025 46 281 0.0 0.9 0.00 0.00 0.00 33 1014.3
20260508092525 46 281 0.0 0.9 0.00 0.00 0.00 35 1014.3
20260508092028 46 281 0.0 0.9 0.00 0.00 0.00 39 1014.2
20260508092024 46 281 0.0 0.9 0.00 0.00 0.00 37 1014.3
20260508091024 46 281 0.0 0.9 0.00 0.00 0.00 39 1014.2
20260508090523 46 281 0.0 0.9 0.00 0.00 0.00 41 1014.3